[[{"header":{"parameterUnit":"m.s-1","parameterCategory":2,"la1":30.2991,"la2":30.254,"lo1":-89.0895,"lo2":-89.0444,"dy":0.0017,"dx":0.0017,"nx":28,"ny":28,"refTime":"2023-10-27T21:00:00:Z","depth":"0","parameterNumber":2,"parameterNumberName":"U-component_of_CURRENTS"},"data":[0,0,0,0,0,0,0,0,0,0,0,0,0,0,0,0,0,0,0,0,0,0,0,0,0,0,0,0,0,0,0,0,0,0,0,0,0,0,0,0,0,0,0,0,0,0,0,0,0,0,0,0,0,0,0,0,0,0,-0.1596,-0.1596,0,-0.1623,-0.1623,-0.1624,-0.1597,-0.1596,-0.1595,-0.1594,-0.148,-0.1478,-0.1476,0,0,0,0,0,0,0,0,0,0,0,0,0,-0.1518,-0.152,-0.1596,-0.1596,-0.1596,-0.1623,-0.1623,-0.1624,-0.1597,-0.1596,-0.1595,-0.1594,-0.1481,-0.1478,-0.1476,0,0,0,0,0,0,0,0,0,0,0,0,0,-0.1549,-0.152,-0.1596,-0.1587,-0.1586,-0.1623,-0.1623,-0.1624,-0.1598,-0.1596,-0.1595,-0.1593,-0.1482,-0.1479,-0.1475,-0.1486,0,0,-0.1466,-0.1465,0,0,0,0,0,0,0,0,-0.1547,-0.1552,-0.1588,-0.1588,-0.1587,-0.1606,-0.1554,-0.1571,-0.1598,-0.1593,-0.1594,-0.1592,-0.151,-0.1505,-0.1515,-0.1481,-0.1476,-0.1466,-0.1464,-0.1462,-0.1461,0,0,0,0,0,0,0,-0.1545,-0.155,-0.1606,-0.1588,-0.1588,-0.1581,-0.1584,-0.1558,-0.1557,-0.1593,-0.1591,-0.1596,-0.1509,-0.1518,-0.1511,-0.1474,-0.1466,-0.1463,-0.1461,-0.146,-0.1463,-0.1465,0,0,0,0,0,0,-0.1545,-0.1549,-0.1605,-0.1607,-0.1564,-0.1584,-0.1586,-0.1601,-0.156,-0.1554,-0.1597,-0.1594,-0.1524,-0.1515,-0.1507,-0.1541,-0.1462,-0.1459,-0.1458,-0.1461,-0.1464,-0.1466,0,0,0,0,0,0,-0.1544,-0.155,-0.1604,-0.1578,-0.1584,-0.1587,-0.1603,-0.1602,-0.1611,-0.1565,-0.1555,-0.1606,-0.1522,-0.1511,-0.1496,-0.1535,-0.1458,-0.1455,-0.1459,-0.1462,-0.1465,-0.1592,0,0,0,0,0,0,-0.1541,-0.155,-0.1562,-0.1578,-0.1586,-0.1651,-0.1604,-0.1604,-0.1616,-0.1613,-0.1569,-0.1557,-0.152,-0.1501,-0.1493,-0.1529,-0.1453,-0.1456,-0.146,-0.1464,-0.1586,-0.1599,-0.1611,0,0,0,0,0,-0.1539,-0.1584,-0.1562,-0.1569,-0.1602,-0.1653,-0.1658,-0.1652,-0.1618,-0.1648,-0.1605,-0.1559,-0.1519,-0.15,-0.149,-0.1526,-0.1455,-0.1459,-0.1463,-0.158,-0.1597,-0.1611,0,0,0,0,0,0,-0.1559,-0.1585,-0.1562,-0.1611,-0.1632,-0.1649,-0.1677,-0.166,-0.1653,-0.1643,-0.1578,-0.1565,-0.1568,-0.1531,-0.1511,-0.154,-0.1482,-0.1484,-0.1574,-0.1589,-0.1601,-0.1611,-0.145,0,0,0,0,0,-0.1566,-0.1604,-0.1618,-0.1655,-0.1669,-0.1666,-0.1682,-0.1684,-0.168,-0.1676,-0.1641,-0.1605,-0.1582,-0.1571,-0.1549,-0.1561,-0.1535,-0.158,-0.1593,-0.1604,-0.1606,-0.1622,-0.1637,-0.148,-0.148,-0.148,0,0,-0.1581,-0.1602,-0.1619,-0.1661,-0.1673,-0.1721,-0.1674,-0.1722,-0.1751,-0.1662,-0.1686,-0.1646,-0.1594,-0.1612,-0.1611,-0.1583,-0.1636,-0.1609,-0.1619,-0.1615,-0.1629,-0.1644,-0.1657,-0.1483,-0.1483,-0.1482,0,0,-0.1649,-0.1651,-0.1706,-0.1735,-0.177,-0.1774,-0.1788,-0.1811,-0.181,-0.1824,-0.177,-0.1756,-0.1719,-0.1707,-0.1686,-0.1755,-0.1701,-0.1748,-0.1822,-0.1839,-0.1852,-0.1863,-0.1856,-0.1865,-0.1758,-0.1758,-0.1758,0,-0.1655,-0.1724,-0.1731,-0.1795,-0.1822,-0.18,-0.1862,-0.1872,-0.1884,-0.1891,-0.1846,-0.182,-0.1767,-0.1793,-0.1806,-0.1785,-0.1774,-0.1768,-0.1856,-0.1866,-0.1876,-0.1865,-0.1874,-0.1765,-0.1764,-0.1763,-0.1763,0,-0.1762,-0.1815,-0.1857,-0.1916,-0.1954,-0.201,-0.2022,-0.2048,-0.2021,-0.2018,-0.2033,-0.1976,-0.1953,-0.1945,-0.1881,-0.1933,-0.1897,-0.1869,-0.1819,-0.1899,-0.1883,-0.189,-0.1774,-0.1772,-0.177,-0.1768,0,0,-0.1732,-0.1899,-0.1898,-0.1939,-0.202,-0.2045,-0.2122,-0.2164,-0.218,-0.2185,-0.2207,-0.2174,-0.2131,-0.2105,-0.205,-0.2056,-0.2093,-0.1988,-0.1985,-0.1983,-0.2119,-0.1984,-0.1978,-0.2084,-0.2086,-0.2088,-0.2084,0,-0.1787,-0.1916,-0.2003,-0.2096,-0.2139,-0.2187,-0.2244,-0.2282,-0.2284,-0.2301,-0.2272,-0.2257,-0.2197,-0.2167,-0.2178,-0.2087,-0.2116,-0.2096,-0.2038,-0.2036,-0.1909,-0.1983,-0.1752,-0.1719,-0.209,-0.2091,-0.2091,0,-0.1798,-0.1893,-0.2002,-0.2142,-0.2168,-0.2222,-0.2279,-0.2346,-0.2393,-0.2399,-0.2422,-0.238,-0.2371,-0.2303,-0.2266,-0.2253,-0.2206,-0.2157,-0.2156,-0.1987,-0.1914,-0.1697,-0.1716,-0.1678,-0.2101,-0.21,-0.2099,0,-0.1654,-0.1856,-0.1931,-0.1977,-0.2146,-0.2192,-0.2268,-0.2342,-0.2357,-0.2444,-0.243,-0.2474,-0.2408,-0.2409,-0.2285,-0.228,-0.2235,-0.2217,-0.2081,-0.2071,-0.1837,-0.1802,-0.1807,-0.2245,-0.2245,-0.2245,-0.2245,0,-0.1603,-0.1652,-0.1859,-0.188,-0.1934,-0.2105,-0.2141,-0.2232,-0.2327,-0.2303,-0.2438,-0.2386,-0.2422,-0.238,-0.2333,-0.22,-0.2281,-0.2102,-0.2068,-0.1874,-0.1843,-0.1766,-0.1786,-0.2245,-0.2245,-0.2245,-0.2245,0,-0.138,-0.1538,-0.1599,-0.1797,-0.1842,-0.1851,-0.2,-0.2015,-0.2174,-0.2146,-0.2161,-0.2275,-0.2229,-0.2266,-0.2228,-0.219,-0.2056,-0.2085,-0.1841,-0.1778,-0.1594,-0.1628,-0.1598,-0.1581,-0.1937,-0.1934,-0.1931,0,-0.1291,-0.1303,-0.1439,-0.1435,-0.1509,-0.1582,-0.1604,-0.184,-0.1863,-0.2011,-0.1955,-0.2,-0.1915,-0.1894,-0.1865,-0.183,-0.1893,-0.1664,-0.1618,-0.1559,-0.1575,-0.1624,-0.1618,-0.1366,-0.1359,-0.1353,-0.1348,0,-0.1111,-0.1128,-0.1169,-0.1149,-0.1164,-0.1201,-0.1286,-0.1287,-0.1524,-0.1537,-0.1519,-0.1494,-0.15,-0.1358,-0.1422,-0.1405,-0.1562,-0.154,-0.1545,-0.1185,-0.1172,-0.1143,-0.14,-0.1296,-0.1301,-0.1305,-0.1308,-0.131,-0.0932,-0.0883,-0.0914,-0.0879,-0.0872,-0.084,-0.0835,-0.0907,-0.0921,-0.0956,-0.103,-0.0955,-0.0928,-0.0938,-0.0968,-0.0952,-0.1125,-0.0929,-0.0994,-0.1065,-0.0992,-0.1127,-0.0945,-0.0948,-0.095,-0.0953,-0.0955,0,-0.0788,-0.0747,-0.0671,-0.0648,-0.0568,-0.0636,-0.0642,-0.0635,-0.0581,-0.0545,-0.05,-0.0354,-0.0271,-0.038,-0.0379,-0.0395,-0.0471,-0.048,-0.0498,-0.0539,-0.0673,-0.0587,-0.0235,-0.0235,-0.0236,-0.0236,-0.0236,-0.0236,-0.0713,-0.0616,-0.0585,-0.042,-0.0371,-0.03,-0.0282,-0.0226,-0.021,-0.006,0.0025,0.0065,-0.0007,-0.0007,-0.005,-0.0098,-0.0216,-0.0161,-0.0368,-0.0431,-0.0479,-0.0525,-0.0449,-0.0075,-0.0075,-0.0126,-0.0126,-0.0126]},{"header":{"parameterUnit":"m.s-1","parameterCategory":2,"la1":30.2991,"la2":30.254,"lo1":-89.0895,"lo2":-89.0444,"dy":0.0017,"dx":0.0017,"nx":28,"ny":28,"refTime":"2023-10-27T21:00:00:Z","depth":"0","parameterNumber":3,"parameterNumberName":"V-component_of_CURRENTS"},"data":[0,0,0,0,0,0,0,0,0,0,0,0,0,0,0,0,0,0,0,0,0,0,0,0,0,0,0,0,0,0,0,0,0,0,0,0,0,0,0,0,0,0,0,0,0,0,0,0,0,0,0,0,0,0,0,0,0,0,0.0007,0.0007,0,0.0002,0.0002,0.0003,-0.0004,-0.0004,-0.0005,-0.0005,0.0,0.0001,0.0001,0,0,0,0,0,0,0,0,0,0,0,0,0,0.0042,0.0042,0.0007,0.0007,0.0006,0.0002,0.0002,0.0003,-0.0004,-0.0004,-0.0005,-0.0006,-0.0,0.0001,0.0001,0,0,0,0,0,0,0,0,0,0,0,0,0,0.0036,0.0042,0.0007,-0.0001,-0.0002,0.0002,0.0002,0.0003,-0.0003,-0.0004,-0.0005,-0.0006,-0.0,0.0001,0.0001,0.0024,0,0,0.0004,0.0005,0,0,0,0,0,0,0,0,0.0036,0.0035,0.0001,-0.0001,-0.0002,-0.0005,0.0017,0.0009,-0.0003,0.0002,-0.0005,-0.0006,-0.0003,-0.0002,0.0005,0.0024,0.0024,0.0005,0.0005,0.0006,0.0006,0,0,0,0,0,0,0,0.0037,0.0035,0.001,-0.0,-0.0002,0.0006,0.0004,0.0016,0.0008,0.0002,-0.0,-0.0008,-0.0003,0.0005,0.0005,0.0024,0.0004,0.0005,0.0006,0.0006,0.0066,0.0067,0,0,0,0,0,0,0.0027,0.0036,0.001,0.0009,0.001,0.0005,0.0004,0.0001,0.0007,0.0006,-0.0007,-0.0008,0.0003,0.0004,0.0006,0.0029,0.0006,0.0006,0.0007,0.0065,0.0066,0.0067,0,0,0,0,0,0,0.0028,0.0025,0.001,0.0018,0.0016,0.0005,0.0002,0.0001,0.0006,-0.0,-0.0,-0.0003,0.0003,0.0004,0.0014,0.0029,0.0007,0.0008,0.0064,0.0066,0.0067,0.0078,0,0,0,0,0,0,0.0029,0.0025,0.0024,0.0018,0.0015,0.0019,0.0002,0.0001,-0.0,-0.0001,0.0004,0.0004,0.0002,0.0013,0.0015,0.003,0.0008,0.0063,0.0065,0.0066,0.0076,0.0079,0.0082,0,0,0,0,0,0.003,0.0027,0.0025,0.0021,0.0013,0.0019,0.002,0.0012,0.0001,0.0012,0.0008,0.0003,0.0027,0.0014,0.0017,0.0032,0.0062,0.0064,0.0066,0.0075,0.0079,0.0082,0,0,0,0,0,0,0.0031,0.0026,0.0023,0.0015,0.002,0.0016,0.0018,0.0015,0.0022,0.0018,0.0012,0.0013,0.003,0.0032,0.0018,0.0057,0.0046,0.0048,0.0051,0.0055,0.0058,0.004,0.0009,0,0,0,0,0,0.0033,0.0036,0.0032,0.0026,0.0029,0.0026,0.0027,0.0026,0.0026,0.0028,0.0031,0.0036,0.0044,0.0048,0.006,0.0078,0.0059,0.0093,0.0096,0.0098,0.0087,0.0078,0.0078,0.0075,0.0075,0.0075,0,0,0.0024,0.0026,0.0022,0.0028,0.0029,0.0035,0.0026,0.0031,0.0035,0.0029,0.0039,0.0049,0.0052,0.0072,0.008,0.0073,0.0089,0.0101,0.0103,0.009,0.008,0.008,0.008,0.0076,0.0076,0.0076,0,0,0.0017,0.0019,0.0022,0.0033,0.004,0.0043,0.0045,0.0052,0.0055,0.0069,0.0064,0.0078,0.0095,0.0099,0.0101,0.0129,0.0107,0.0141,0.0139,0.0131,0.0131,0.013,0.0097,0.0093,0.0141,0.0141,0.0141,0,0.0001,0.0007,0.0024,0.0035,0.0032,0.0046,0.0044,0.0059,0.0069,0.0066,0.0074,0.0093,0.0105,0.0109,0.0123,0.0135,0.0115,0.0122,0.0133,0.0132,0.0131,0.0097,0.0093,0.0142,0.0142,0.0142,0.0141,0,0.0003,0.0007,0.001,0.0027,0.0037,0.0039,0.0055,0.0069,0.0075,0.008,0.0094,0.0115,0.0117,0.0137,0.0138,0.0144,0.0126,0.0137,0.0117,0.0131,0.0096,0.0091,0.0143,0.0143,0.0142,0.0142,0,0,-0.0059,-0.0004,-0.0008,-0.0006,0.0028,0.0026,0.0047,0.0052,0.0039,0.008,0.006,0.0107,0.0114,0.0118,0.0131,0.0134,0.012,0.0133,0.0132,0.0087,0.0078,0.0152,0.0153,0.013,0.013,0.013,0.0052,0,-0.0079,-0.0061,-0.0026,-0.0029,-0.003,-0.0001,0.0007,0.0023,0.0034,0.0029,0.0061,0.0061,0.0108,0.0104,0.0119,0.0118,0.011,0.0139,0.0081,0.0078,0.0133,0.0152,0.0196,0.0139,0.0047,0.0046,0.0045,0,-0.0107,-0.0093,-0.0088,-0.0075,-0.0075,-0.0067,-0.0074,-0.0061,-0.0044,-0.0036,-0.0014,0.0003,0.0024,0.0056,0.0065,0.0079,0.0076,0.0079,0.0076,0.0136,0.0145,0.0113,0.0133,0.0159,0.0038,0.0038,0.0039,0,-0.0178,-0.0152,-0.0154,-0.0146,-0.0114,-0.0117,-0.0106,-0.0087,-0.0086,-0.008,-0.0082,-0.0056,-0.005,-0.0032,0.0014,0.0023,0.001,0.0018,0.0074,0.0077,0.0099,0.0107,0.0129,0.0005,0.0005,0.0005,0.0006,0,-0.0229,-0.0236,-0.0188,-0.0192,-0.0209,-0.0172,-0.0191,-0.0173,-0.0162,-0.015,-0.0119,-0.0099,-0.0069,-0.0053,-0.0024,0.0026,-0.0017,0.0069,0.0071,0.0106,0.0115,0.0128,0.0121,0.0002,0.0003,0.0004,0.0004,0,-0.0294,-0.0263,-0.0267,-0.0242,-0.0236,-0.0248,-0.0224,-0.023,-0.0215,-0.0201,-0.0196,-0.0154,-0.0105,-0.0076,-0.006,-0.0016,0.0037,0.0032,0.0068,0.0078,0.0183,0.0174,0.0155,0.0185,0.007,0.0071,0.0073,0,-0.0314,-0.032,-0.0301,-0.0296,-0.028,-0.0283,-0.0274,-0.0257,-0.0245,-0.0203,-0.0191,-0.0156,-0.0075,-0.0027,0.003,0.0071,0.0082,0.0124,0.0173,0.02,0.0189,0.0166,0.0189,0.0182,0.0184,0.0186,0.0187,0,-0.0348,-0.034,-0.0335,-0.0325,-0.0318,-0.0315,-0.0296,-0.0299,-0.0256,-0.0216,-0.0133,-0.0069,0.0,0.0103,0.0146,0.0177,0.0163,0.0164,0.0177,0.0276,0.0262,0.0287,0.0197,0.0202,0.0201,0.02,0.0199,0.0198,-0.036,-0.0364,-0.0346,-0.0342,-0.0331,-0.0318,-0.0308,-0.0263,-0.0219,-0.0103,-0.0047,0.0123,0.0185,0.0284,0.0288,0.033,0.0286,0.0358,0.0336,0.0302,0.0375,0.0326,0.036,0.036,0.0359,0.0359,0.0358,0,-0.0346,-0.0347,-0.035,-0.0337,-0.032,-0.0316,-0.029,-0.0248,-0.0153,0.0003,0.0147,0.0375,0.0447,0.0467,0.0488,0.0497,0.0468,0.0496,0.0454,0.0466,0.0409,0.0465,0.0543,0.0543,0.0543,0.0543,0.0543,0.0543,-0.0332,-0.033,-0.0337,-0.0316,-0.0301,-0.0266,-0.0244,-0.0158,-0.004,0.022,0.0434,0.059,0.0637,0.0576,0.0585,0.0587,0.0576,0.0565,0.0555,0.0505,0.049,0.0475,0.0528,0.0619,0.0619,0.0631,0.0631,0.0631]}],[{"header":{"parameterUnit":"m.s-1","parameterCategory":2,"la1":30.2991,"la2":30.254,"lo1":-89.0895,"lo2":-89.0444,"dy":0.0017,"dx":0.0017,"nx":28,"ny":28,"refTime":"2023-10-27T21:00:00:Z","depth":"2","parameterNumber":2,"parameterNumberName":"U-component_of_CURRENTS"},"data":[0,0,0,0,0,0,0,0,0,0,0,0,0,0,0,0,0,0,0,0,0,0,0,0,0,0,0,0,0,0,0,0,0,0,0,0,0,0,0,0,0,0,0,0,0,0,0,0,0,0,0,0,0,0,0,0,0,0,-0.0447,-0.0444,0,-0.0299,-0.0299,-0.0298,-0.0265,-0.0265,-0.0265,-0.0264,-0.0304,-0.0305,-0.0307,0,0,0,0,0,0,0,0,0,0,0,0,0,-0.0556,-0.0556,-0.0447,-0.0444,-0.0441,-0.0299,-0.0299,-0.0298,-0.0265,-0.0265,-0.0265,-0.0264,-0.0304,-0.0305,-0.0307,0,0,0,0,0,0,0,0,0,0,0,0,0,-0.0483,-0.0556,-0.0448,-0.0396,-0.0389,-0.0299,-0.0298,-0.0298,-0.0265,-0.0265,-0.0265,-0.0264,-0.0303,-0.0305,-0.0307,-0.0328,0,0,-0.0313,-0.0314,0,0,0,0,0,0,0,0,-0.0487,-0.0481,-0.0407,-0.04,-0.0391,-0.0287,-0.035,-0.0312,-0.0266,-0.0328,-0.0264,-0.0264,-0.0306,-0.0308,-0.03,-0.033,-0.0331,-0.0313,-0.0314,-0.0315,-0.0316,0,0,0,0,0,0,0,-0.0493,-0.0486,-0.0403,-0.0403,-0.0394,-0.033,-0.0322,-0.0343,-0.0337,-0.0323,-0.0316,-0.0276,-0.0306,-0.0298,-0.0301,-0.0332,-0.0313,-0.0315,-0.0316,-0.0317,-0.0391,-0.0391,0,0,0,0,0,0,-0.0489,-0.0492,-0.0408,-0.0397,-0.0422,-0.0328,-0.032,-0.0333,-0.0332,-0.0325,-0.0277,-0.0275,-0.0295,-0.0298,-0.0302,-0.0355,-0.0315,-0.0317,-0.0318,-0.039,-0.0391,-0.0392,0,0,0,0,0,0,-0.0494,-0.0486,-0.0414,-0.0426,-0.041,-0.0326,-0.0341,-0.033,-0.0381,-0.0292,-0.0293,-0.0343,-0.0294,-0.0299,-0.0345,-0.0355,-0.0318,-0.032,-0.0389,-0.039,-0.0391,-0.0443,0,0,0,0,0,0,-0.0499,-0.049,-0.0528,-0.0428,-0.0409,-0.04,-0.034,-0.0327,-0.0345,-0.0344,-0.0349,-0.0347,-0.0294,-0.0342,-0.0347,-0.0357,-0.0321,-0.0388,-0.039,-0.0391,-0.044,-0.0446,-0.045,0,0,0,0,0,-0.0504,-0.0566,-0.0533,-0.0521,-0.0457,-0.04,-0.039,-0.0333,-0.035,-0.0382,-0.0371,-0.0351,-0.0353,-0.0346,-0.0351,-0.0362,-0.0387,-0.0389,-0.0391,-0.0438,-0.0445,-0.045,0,0,0,0,0,0,-0.0638,-0.0563,-0.0526,-0.0564,-0.0495,-0.039,-0.0421,-0.0388,-0.0408,-0.0441,-0.0381,-0.0379,-0.0394,-0.0397,-0.039,-0.0385,-0.036,-0.0363,-0.0394,-0.0401,-0.0406,-0.043,-0.0323,0,0,0,0,0,-0.0678,-0.0713,-0.0603,-0.0636,-0.0623,-0.0544,-0.0528,-0.0492,-0.0465,-0.0477,-0.0447,-0.0434,-0.0397,-0.0422,-0.0383,-0.0434,-0.0456,-0.0437,-0.0442,-0.0447,-0.047,-0.0481,-0.049,-0.0397,-0.0397,-0.0397,0,0,-0.0751,-0.0696,-0.0728,-0.0666,-0.0631,-0.0608,-0.0543,-0.0555,-0.0524,-0.0483,-0.0492,-0.0452,-0.0408,-0.04,-0.0414,-0.0421,-0.0496,-0.0449,-0.0453,-0.0474,-0.0484,-0.0493,-0.0501,-0.0398,-0.0398,-0.0398,0,0,-0.0867,-0.0864,-0.0919,-0.0862,-0.0793,-0.0725,-0.0748,-0.0672,-0.0646,-0.0643,-0.0564,-0.0545,-0.0541,-0.0461,-0.0435,-0.0472,-0.0498,-0.0476,-0.0556,-0.0567,-0.0575,-0.0582,-0.0674,-0.0688,-0.0508,-0.0508,-0.0508,0,-0.0959,-0.0968,-0.0924,-0.0917,-0.0884,-0.0794,-0.0818,-0.0757,-0.0691,-0.067,-0.0668,-0.0593,-0.055,-0.0503,-0.0492,-0.0479,-0.0537,-0.0533,-0.0575,-0.0582,-0.0588,-0.068,-0.0695,-0.0511,-0.0511,-0.051,-0.051,0,-0.1049,-0.1067,-0.1098,-0.1052,-0.1033,-0.1036,-0.0925,-0.0885,-0.0855,-0.0789,-0.0754,-0.0679,-0.0636,-0.0604,-0.0567,-0.0572,-0.0618,-0.0555,-0.0561,-0.0601,-0.0695,-0.0711,-0.0515,-0.0514,-0.0513,-0.0512,0,0,-0.1175,-0.1179,-0.1164,-0.1152,-0.1101,-0.1063,-0.1037,-0.0954,-0.0949,-0.0869,-0.0867,-0.0759,-0.0738,-0.0706,-0.0639,-0.0657,-0.0741,-0.0661,-0.066,-0.076,-0.0863,-0.0735,-0.0741,-0.0706,-0.0708,-0.0709,-0.093,0,-0.1238,-0.1248,-0.1251,-0.1251,-0.1242,-0.1168,-0.1134,-0.1057,-0.1031,-0.0994,-0.0888,-0.0864,-0.0769,-0.0774,-0.0766,-0.0723,-0.0778,-0.0693,-0.0804,-0.0809,-0.0693,-0.075,-0.0553,-0.0717,-0.0945,-0.0948,-0.0949,0,-0.1228,-0.1245,-0.1286,-0.1286,-0.1289,-0.1288,-0.1229,-0.12,-0.113,-0.1116,-0.1087,-0.1038,-0.0985,-0.0922,-0.0916,-0.0885,-0.09,-0.0889,-0.0895,-0.0766,-0.0706,-0.0703,-0.0736,-0.0975,-0.0973,-0.0971,-0.0969,0,-0.1161,-0.1214,-0.1245,-0.1236,-0.1256,-0.1264,-0.1265,-0.1237,-0.1206,-0.1207,-0.1226,-0.1182,-0.1156,-0.1139,-0.1079,-0.1036,-0.1129,-0.1046,-0.0965,-0.0961,-0.0805,-0.078,-0.1098,-0.1098,-0.1097,-0.1097,-0.1096,0,-0.1111,-0.1113,-0.1211,-0.1203,-0.1216,-0.1268,-0.1292,-0.1266,-0.1296,-0.1262,-0.129,-0.1242,-0.1217,-0.1231,-0.1184,-0.1125,-0.1206,-0.1008,-0.0994,-0.082,-0.0796,-0.1004,-0.099,-0.1105,-0.1103,-0.1102,-0.11,0,-0.0969,-0.1043,-0.1053,-0.1146,-0.1169,-0.1159,-0.1236,-0.1226,-0.1314,-0.1283,-0.1276,-0.1307,-0.1286,-0.1304,-0.131,-0.1241,-0.1208,-0.1184,-0.1021,-0.0978,-0.1033,-0.102,-0.1125,-0.1122,-0.1119,-0.1117,-0.1115,0,-0.09,-0.0899,-0.0965,-0.0958,-0.1007,-0.1036,-0.1027,-0.1142,-0.1151,-0.1241,-0.1186,-0.1256,-0.1136,-0.1179,-0.1094,-0.1073,-0.1161,-0.097,-0.0777,-0.1053,-0.103,-0.102,-0.1011,-0.0651,-0.0646,-0.0641,-0.0638,0,-0.0789,-0.0803,-0.0807,-0.0787,-0.0797,-0.0799,-0.0842,-0.0847,-0.0953,-0.0963,-0.0926,-0.0881,-0.0889,-0.0734,-0.0809,-0.0755,-0.0939,-0.0871,-0.1224,-0.0626,-0.0608,-0.0585,-0.0591,-0.0598,-0.0602,-0.0605,-0.0607,-0.0609,-0.0671,-0.0631,-0.0632,-0.0592,-0.0588,-0.0564,-0.0548,-0.0579,-0.0565,-0.057,-0.06,-0.05,-0.0557,-0.0424,-0.0453,-0.0526,-0.0562,-0.0568,-0.0582,-0.06,-0.0456,-0.0428,-0.0367,-0.0369,-0.0372,-0.0374,-0.0375,0,-0.0534,-0.0508,-0.0449,-0.0415,-0.0354,-0.041,-0.0404,-0.0378,-0.0313,-0.0261,-0.0198,-0.0111,-0.0008,-0.0123,-0.0085,-0.0132,-0.0148,-0.02,-0.0194,-0.0228,-0.026,-0.0101,0.0083,0.0082,0.0082,0.0082,0,0,-0.0465,-0.0374,-0.0347,-0.0224,-0.019,-0.013,-0.0112,-0.0062,-0.0022,0.0091,0.0169,0.0203,0.0102,0.0172,0.0111,0.0121,-0.0054,0.0119,-0.0215,-0.0224,-0.0256,-0.0412,-0.0195,0,0,0,0,0]},{"header":{"parameterUnit":"m.s-1","parameterCategory":2,"la1":30.2991,"la2":30.254,"lo1":-89.0895,"lo2":-89.0444,"dy":0.0017,"dx":0.0017,"nx":28,"ny":28,"refTime":"2023-10-27T21:00:00:Z","depth":"2","parameterNumber":3,"parameterNumberName":"V-component_of_CURRENTS"},"data":[0,0,0,0,0,0,0,0,0,0,0,0,0,0,0,0,0,0,0,0,0,0,0,0,0,0,0,0,0,0,0,0,0,0,0,0,0,0,0,0,0,0,0,0,0,0,0,0,0,0,0,0,0,0,0,0,0,0,-0.028,-0.0282,0,-0.0372,-0.0372,-0.0373,-0.0389,-0.0389,-0.039,-0.039,-0.0341,-0.034,-0.0338,0,0,0,0,0,0,0,0,0,0,0,0,0,-0.0211,-0.021,-0.028,-0.0282,-0.0284,-0.0372,-0.0372,-0.0373,-0.0389,-0.0389,-0.039,-0.039,-0.0342,-0.034,-0.0338,0,0,0,0,0,0,0,0,0,0,0,0,0,-0.0256,-0.021,-0.028,-0.031,-0.0314,-0.0372,-0.0372,-0.0373,-0.0389,-0.0389,-0.039,-0.039,-0.0342,-0.034,-0.0338,-0.0322,0,0,-0.0332,-0.0331,0,0,0,0,0,0,0,0,-0.0253,-0.0257,-0.0304,-0.0308,-0.0313,-0.0378,-0.0331,-0.0352,-0.0389,-0.0351,-0.039,-0.039,-0.0346,-0.0344,-0.0349,-0.0319,-0.0317,-0.0331,-0.033,-0.0329,-0.0329,0,0,0,0,0,0,0,-0.025,-0.0254,-0.0307,-0.0306,-0.0312,-0.0351,-0.0356,-0.0335,-0.0336,-0.0354,-0.0358,-0.0383,-0.0347,-0.0351,-0.0348,-0.0317,-0.0331,-0.033,-0.0328,-0.0328,-0.0288,-0.0288,0,0,0,0,0,0,-0.0253,-0.0251,-0.0304,-0.0311,-0.0294,-0.0353,-0.0357,-0.0349,-0.034,-0.0343,-0.0383,-0.0384,-0.0355,-0.0351,-0.0346,-0.0319,-0.0329,-0.0327,-0.0326,-0.0288,-0.0288,-0.0289,0,0,0,0,0,0,-0.025,-0.0255,-0.0301,-0.0293,-0.0302,-0.0354,-0.0344,-0.0351,-0.0343,-0.0365,-0.0363,-0.0368,-0.0355,-0.0349,-0.0343,-0.0317,-0.0326,-0.0324,-0.0288,-0.0288,-0.0288,-0.0268,0,0,0,0,0,0,-0.0247,-0.0253,-0.0235,-0.0291,-0.0303,-0.033,-0.0346,-0.0353,-0.0364,-0.0365,-0.0352,-0.0349,-0.0355,-0.0347,-0.0341,-0.0314,-0.0323,-0.0288,-0.0288,-0.0288,-0.0268,-0.0268,-0.0267,0,0,0,0,0,-0.0244,-0.023,-0.0232,-0.024,-0.0279,-0.0331,-0.0339,-0.0372,-0.0363,-0.0361,-0.0367,-0.0348,-0.0345,-0.0346,-0.0339,-0.0311,-0.0287,-0.0288,-0.0288,-0.0269,-0.0268,-0.0267,0,0,0,0,0,0,-0.0187,-0.0233,-0.0237,-0.0233,-0.0276,-0.0338,-0.0344,-0.0357,-0.0359,-0.0347,-0.0353,-0.0351,-0.0344,-0.0331,-0.0332,-0.0305,-0.0311,-0.031,-0.0298,-0.0297,-0.0296,-0.0269,-0.0321,0,0,0,0,0,-0.0167,-0.0169,-0.0222,-0.022,-0.0235,-0.0278,-0.0297,-0.0316,-0.0341,-0.034,-0.0347,-0.0342,-0.0342,-0.0323,-0.0333,-0.0301,-0.0285,-0.028,-0.0279,-0.0278,-0.0254,-0.0232,-0.0227,-0.029,-0.029,-0.029,0,0,-0.0152,-0.0175,-0.0177,-0.021,-0.0238,-0.0257,-0.0286,-0.0309,-0.0314,-0.0331,-0.0328,-0.0346,-0.0342,-0.0334,-0.0324,-0.0312,-0.0255,-0.0279,-0.0278,-0.0254,-0.0232,-0.0226,-0.022,-0.029,-0.029,-0.029,0,0,-0.0131,-0.0131,-0.0127,-0.0155,-0.0199,-0.023,-0.023,-0.028,-0.0284,-0.0291,-0.0315,-0.0314,-0.0309,-0.0309,-0.0302,-0.0292,-0.0269,-0.0295,-0.0241,-0.0221,-0.0214,-0.0209,-0.0187,-0.018,-0.0273,-0.0273,-0.0273,0,-0.0113,-0.0107,-0.0137,-0.0143,-0.0166,-0.0211,-0.0214,-0.0229,-0.0273,-0.0266,-0.0283,-0.0284,-0.029,-0.0261,-0.0274,-0.0283,-0.0275,-0.0243,-0.0217,-0.0211,-0.0205,-0.0185,-0.0177,-0.0272,-0.0272,-0.0272,-0.0272,0,-0.0095,-0.0089,-0.0093,-0.011,-0.0129,-0.0149,-0.0182,-0.0188,-0.0198,-0.0214,-0.0202,-0.0225,-0.0219,-0.0225,-0.0244,-0.0208,-0.0217,-0.0236,-0.0214,-0.0197,-0.0177,-0.0169,-0.027,-0.0271,-0.0271,-0.0271,0,0,-0.0101,-0.008,-0.0089,-0.0088,-0.0114,-0.0142,-0.0126,-0.014,-0.0128,-0.0142,-0.0117,-0.0128,-0.0141,-0.0136,-0.0159,-0.0132,-0.0105,-0.0163,-0.0162,-0.013,-0.0058,-0.0042,-0.0032,-0.0123,-0.0122,-0.0121,-0.0062,0,-0.0094,-0.0084,-0.0072,-0.0081,-0.0092,-0.0101,-0.0091,-0.0095,-0.01,-0.0092,-0.0073,-0.0079,-0.0105,-0.0113,-0.0087,-0.0115,-0.0081,-0.0118,-0.0087,-0.0086,-0.0064,-0.0021,-0.0033,0.0021,-0.0054,-0.0053,-0.0052,0,-0.0113,-0.0104,-0.0091,-0.0074,-0.0076,-0.0081,-0.0079,-0.0073,-0.0046,-0.0037,-0.0007,-0.0019,0.0012,-0.0024,0.0008,-0.0019,-0.0029,-0.0036,-0.0034,-0.0012,-0.0053,-0.0007,0.0038,-0.0038,-0.0039,-0.004,-0.0041,0,-0.0165,-0.0136,-0.0125,-0.0127,-0.0105,-0.0093,-0.0084,-0.0064,-0.0057,-0.0016,-0.0008,0.0041,0.0035,0.0062,0.0037,0.0021,0.0072,0.0046,0.0066,0.0066,0.007,0.0069,0.0086,0.0086,0.0086,0.0086,0.0086,0,-0.0206,-0.0208,-0.0151,-0.0165,-0.0154,-0.0123,-0.0115,-0.009,-0.0052,-0.0036,0.0,0.0023,0.0049,0.007,0.0073,0.0102,0.0103,0.0101,0.0094,0.0074,0.0073,0.0029,0.0022,0.0088,0.0088,0.0087,0.0087,0,-0.0284,-0.0245,-0.0243,-0.02,-0.0188,-0.0192,-0.0155,-0.0141,-0.0103,-0.0078,-0.0068,-0.0004,0.0046,0.0076,0.0112,0.0127,0.0161,0.0163,0.0142,0.0133,0.0139,0.0131,0.0227,0.0228,0.0229,0.023,0.0231,0,-0.0313,-0.032,-0.0286,-0.0279,-0.0263,-0.0251,-0.0234,-0.0185,-0.017,-0.0096,-0.0083,-0.0022,0.0046,0.0133,0.0165,0.0221,0.019,0.023,0.021,0.0175,0.0159,0.0149,0.0141,0.0215,0.0216,0.0216,0.0217,0,-0.0371,-0.0361,-0.0353,-0.0334,-0.0324,-0.0308,-0.0281,-0.0277,-0.0209,-0.0165,-0.0077,-0.0003,0.009,0.0174,0.0231,0.0252,0.0232,0.0244,0.0222,0.018,0.0169,0.0151,0.0142,0.0221,0.0221,0.022,0.022,0.022,-0.0409,-0.0413,-0.0388,-0.0378,-0.0359,-0.0339,-0.0326,-0.0279,-0.0231,-0.0127,-0.0067,0.0057,0.0126,0.0236,0.0263,0.0268,0.0279,0.0278,0.0274,0.0271,0.0258,0.0249,0.0314,0.0314,0.0314,0.0314,0.0315,0,-0.0426,-0.0416,-0.0414,-0.0392,-0.037,-0.0354,-0.0325,-0.029,-0.0212,-0.01,0.0017,0.0088,0.0193,0.0235,0.0258,0.0294,0.0266,0.0288,0.0245,0.0242,0.0239,0.0222,0.027,0.027,0.027,0.027,0,0,-0.043,-0.0426,-0.0423,-0.0392,-0.037,-0.0333,-0.0314,-0.0249,-0.0169,-0.0043,0.0045,0.0182,0.0225,0.0229,0.0265,0.0268,0.0245,0.0261,0.0299,0.0244,0.024,0.0242,0.0213,0,0,0,0,0]}],[{"header":{"parameterUnit":"m.s-1","parameterCategory":2,"la1":30.2991,"la2":30.254,"lo1":-89.0895,"lo2":-89.0444,"dy":0.0017,"dx":0.0017,"nx":28,"ny":28,"refTime":"2023-10-27T21:00:00:Z","depth":"4","parameterNumber":2,"parameterNumberName":"U-component_of_CURRENTS"},"data":[0,0,0,0,0,0,0,0,0,0,0,0,0,0,0,0,0,0,0,0,0,0,0,0,0,0,0,0,0,0,0,0,0,0,0,0,0,0,0,0,0,0,0,0,0,0,0,0,0,0,0,0,0,0,0,0,0,0,0.0249,0.0249,0,0.0228,0.0228,0.0227,0.0206,0.0206,0.0206,0.0206,0.0208,0.0208,0.0208,0,0,0,0,0,0,0,0,0,0,0,0,0,0.0203,0.0204,0.0249,0.0249,0.0249,0.0228,0.0228,0.0227,0.0206,0.0206,0.0206,0.0206,0.0208,0.0208,0.0208,0,0,0,0,0,0,0,0,0,0,0,0,0,0.0204,0.0204,0.0249,0.0238,0.0237,0.0229,0.0228,0.0227,0.0206,0.0206,0.0206,0.0206,0.0208,0.0208,0.0208,0.0207,0,0,0.0208,0.0208,0,0,0,0,0,0,0,0,0.0204,0.0205,0.024,0.0239,0.0238,0.0223,0.0212,0.0223,0.0206,0.0215,0.0206,0.0206,0.0217,0.0216,0.0207,0.0207,0.0207,0.0208,0.0208,0.0208,0.0208,0,0,0,0,0,0,0,0.0204,0.0205,0.0237,0.024,0.0239,0.0212,0.0212,0.0213,0.0214,0.0214,0.0213,0.0216,0.0216,0.0207,0.0207,0.0207,0.0208,0.0208,0.0208,0.0208,0.0245,0.0246,0,0,0,0,0,0,0.0217,0.0206,0.0238,0.0237,0.0224,0.0213,0.0214,0.0225,0.0213,0.0212,0.0216,0.0215,0.0207,0.0207,0.0207,0.0207,0.0208,0.0208,0.0208,0.0244,0.0245,0.0246,0,0,0,0,0,0,0.0216,0.022,0.0239,0.0223,0.0224,0.0215,0.0227,0.0225,0.0221,0.0215,0.0214,0.0216,0.0207,0.0207,0.0226,0.0207,0.0208,0.0208,0.0243,0.0244,0.0246,0.0207,0,0,0,0,0,0,0.0215,0.022,0.0233,0.0224,0.0225,0.0236,0.0228,0.0224,0.0224,0.0223,0.0215,0.0215,0.0207,0.0226,0.0226,0.0208,0.0208,0.0242,0.0243,0.0245,0.0208,0.0207,0.0207,0,0,0,0,0,0.0213,0.0229,0.0234,0.0238,0.0244,0.0236,0.0234,0.0225,0.0224,0.0221,0.023,0.0215,0.0237,0.0227,0.0227,0.0208,0.0241,0.0243,0.0245,0.0208,0.0207,0.0207,0,0,0,0,0,0,0.0206,0.0228,0.0234,0.0254,0.0249,0.0234,0.0239,0.023,0.0231,0.0239,0.023,0.023,0.0238,0.0243,0.0232,0.023,0.0236,0.0238,0.0207,0.0207,0.0207,0.0179,0.0208,0,0,0,0,0,0.0215,0.024,0.0242,0.0257,0.0262,0.0252,0.025,0.0243,0.0243,0.0243,0.0239,0.0244,0.0245,0.0244,0.025,0.0249,0.024,0.0241,0.024,0.024,0.0221,0.0219,0.0215,0.0253,0.0253,0.0253,0,0,0.0218,0.0233,0.0247,0.0259,0.026,0.0252,0.025,0.0252,0.0235,0.0245,0.0235,0.0247,0.025,0.0248,0.025,0.0247,0.0225,0.0243,0.0242,0.0223,0.022,0.0216,0.0213,0.0255,0.0254,0.0254,0,0,0.0226,0.025,0.0269,0.0268,0.0275,0.0263,0.0266,0.0258,0.0248,0.0249,0.0249,0.0253,0.026,0.0244,0.0241,0.0249,0.0231,0.0258,0.022,0.0218,0.0214,0.021,0.0183,0.0178,0.0249,0.0249,0.0249,0,0.0219,0.0229,0.0268,0.0275,0.0257,0.0268,0.0249,0.0248,0.0242,0.0223,0.0249,0.0241,0.025,0.0219,0.0223,0.0241,0.0235,0.0212,0.0214,0.021,0.0207,0.0181,0.0174,0.0248,0.0248,0.0248,0.0248,0,0.0238,0.0228,0.0235,0.0244,0.0249,0.0224,0.0232,0.0224,0.022,0.0207,0.0192,0.0212,0.0196,0.0207,0.0215,0.0188,0.0189,0.0217,0.0203,0.02,0.0173,0.0168,0.0245,0.0246,0.0246,0.0247,0,0,0.0225,0.0235,0.0229,0.0181,0.0209,0.018,0.0195,0.0156,0.012,0.0147,0.0101,0.012,0.0127,0.0125,0.0136,0.0137,0.0112,0.0163,0.0163,0.0115,0.0088,0.0102,0.0096,0.0142,0.0141,0.0141,0.0074,0,0.019,0.0142,0.0189,0.0113,0.0062,0.009,0.0075,0.0067,0.0075,0.0048,0.0071,0.0046,0.0096,0.0079,0.0095,0.0112,0.0097,0.0126,0.0116,0.0115,0.0111,0.0091,0.0138,0.007,0.0069,0.0068,0.0067,0,0.0164,0.0118,0.0045,-0.0042,-0.0054,-0.007,-0.0126,-0.0135,-0.0119,-0.0107,-0.0087,-0.0056,-0.0057,-0.0002,0.0012,0.0031,0.0047,0.0067,0.0066,0.0083,0.0118,0.008,0.0056,0.0057,0.0058,0.0059,0.0059,0,0.0048,-0.0011,-0.0104,-0.0123,-0.0166,-0.0195,-0.0218,-0.0196,-0.0211,-0.0207,-0.0207,-0.0178,-0.0171,-0.013,-0.0061,-0.0033,-0.004,0.0005,0.002,0.002,0.0042,0.0047,-0.0007,-0.0007,-0.0006,-0.0006,-0.0006,0,-0.005,-0.0124,-0.0181,-0.0239,-0.033,-0.0325,-0.0386,-0.0379,-0.0369,-0.0365,-0.0312,-0.0289,-0.0196,-0.0163,-0.0106,-0.0063,-0.0078,-0.0007,0.0003,0.0029,0.0034,0.0037,0.0043,-0.0009,-0.0008,-0.0008,-0.0007,0,-0.0105,-0.0167,-0.0269,-0.0356,-0.0381,-0.0432,-0.0451,-0.0475,-0.049,-0.0468,-0.047,-0.039,-0.0332,-0.0263,-0.0194,-0.0131,-0.0093,-0.0083,-0.0094,-0.008,-0.0027,-0.0021,-0.0078,-0.0078,-0.0078,-0.0078,-0.0078,0,-0.0104,-0.0178,-0.0313,-0.0352,-0.0372,-0.0446,-0.046,-0.0501,-0.0487,-0.0501,-0.0474,-0.0451,-0.0374,-0.0283,-0.0212,-0.0152,-0.0122,-0.0125,-0.0044,-0.005,-0.0035,-0.0029,-0.0024,-0.0078,-0.0078,-0.0078,-0.0078,0,-0.0051,-0.0118,-0.0188,-0.031,-0.0358,-0.0406,-0.0439,-0.0455,-0.0473,-0.0519,-0.0445,-0.0397,-0.0339,-0.0239,-0.0216,-0.0157,-0.0127,-0.0125,-0.0123,-0.0047,-0.0051,-0.0034,-0.0029,-0.0079,-0.0079,-0.0079,-0.0079,0,0.0038,0.0018,-0.0106,-0.0203,-0.0278,-0.032,-0.037,-0.0364,-0.0388,-0.041,-0.0377,-0.034,-0.0314,-0.0246,-0.0211,-0.0169,-0.0133,-0.0092,-0.0091,-0.009,-0.0056,-0.0061,-0.0102,0,0,0,0,0,0.0134,0.0104,0.0026,-0.0102,-0.0196,-0.0242,-0.031,-0.0355,-0.0408,-0.0335,-0.036,-0.0294,-0.0231,-0.0211,-0.0161,-0.0213,-0.0141,-0.0154,-0.0095,-0.008,-0.008,-0.0034,0,0,0,0,0,0,0.0189,0.0148,0.0069,0.0003,-0.0065,-0.0139,-0.0182,-0.0229,-0.02,-0.0251,-0.021,-0.025,-0.0188,-0.023,-0.0137,-0.0137,-0.0086,-0.015,-0.0149,-0.0081,-0.008,-0.008,-0.0032,0,0,0,0,0]},{"header":{"parameterUnit":"m.s-1","parameterCategory":2,"la1":30.2991,"la2":30.254,"lo1":-89.0895,"lo2":-89.0444,"dy":0.0017,"dx":0.0017,"nx":28,"ny":28,"refTime":"2023-10-27T21:00:00:Z","depth":"4","parameterNumber":3,"parameterNumberName":"V-component_of_CURRENTS"},"data":[0,0,0,0,0,0,0,0,0,0,0,0,0,0,0,0,0,0,0,0,0,0,0,0,0,0,0,0,0,0,0,0,0,0,0,0,0,0,0,0,0,0,0,0,0,0,0,0,0,0,0,0,0,0,0,0,0,0,0.0112,0.0112,0,0.0112,0.0112,0.0112,0.0137,0.0138,0.0138,0.0138,0.0101,0.01,0.0098,0,0,0,0,0,0,0,0,0,0,0,0,0,0.0153,0.0152,0.0113,0.0112,0.0112,0.0111,0.0112,0.0112,0.0137,0.0138,0.0138,0.0138,0.0101,0.01,0.0098,0,0,0,0,0,0,0,0,0,0,0,0,0,0.0146,0.0152,0.0113,0.0121,0.0122,0.0111,0.0112,0.0112,0.0137,0.0138,0.0138,0.0139,0.0102,0.01,0.0098,0.0076,0,0,0.0092,0.0091,0,0,0,0,0,0,0,0,0.0146,0.0145,0.0121,0.0121,0.0121,0.0122,0.0112,0.0097,0.0137,0.0135,0.0138,0.0139,0.0102,0.01,0.0104,0.0074,0.0073,0.0092,0.0091,0.009,0.0089,0,0,0,0,0,0,0,0.0146,0.0145,0.0116,0.012,0.012,0.0131,0.0131,0.011,0.0118,0.0135,0.0136,0.013,0.0102,0.0106,0.0104,0.0072,0.0092,0.009,0.0089,0.0088,0.0046,0.0046,0,0,0,0,0,0,0.0137,0.0145,0.0116,0.0116,0.0131,0.013,0.013,0.0124,0.0119,0.0118,0.013,0.0131,0.0109,0.0106,0.0102,0.0079,0.009,0.0088,0.0087,0.0046,0.0046,0.0046,0,0,0,0,0,0,0.0138,0.0135,0.0116,0.0127,0.0125,0.0128,0.0122,0.0124,0.013,0.0114,0.0114,0.0133,0.011,0.0105,0.0094,0.0078,0.0087,0.0085,0.0046,0.0046,0.0046,0.0031,0,0,0,0,0,0,0.0139,0.0135,0.0133,0.0127,0.0124,0.0106,0.0121,0.0123,0.0123,0.0125,0.0117,0.0114,0.011,0.0097,0.0092,0.0075,0.0084,0.0046,0.0046,0.0046,0.0031,0.0031,0.003,0,0,0,0,0,0.0141,0.013,0.0133,0.0129,0.0119,0.0105,0.0105,0.0111,0.0123,0.012,0.0125,0.0114,0.0094,0.0096,0.009,0.0072,0.0046,0.0046,0.0046,0.0032,0.0031,0.003,0,0,0,0,0,0,0.0147,0.0131,0.0134,0.012,0.0111,0.0108,0.0103,0.011,0.0113,0.0117,0.0113,0.011,0.0096,0.0089,0.0091,0.0063,0.0068,0.0067,0.006,0.0058,0.0058,0.007,0.0082,0,0,0,0,0,0.0146,0.0134,0.0122,0.0111,0.0105,0.0106,0.0103,0.0106,0.0104,0.0107,0.0099,0.0095,0.009,0.008,0.0072,0.005,0.0074,0.0038,0.0037,0.0036,0.0044,0.0071,0.0074,0.0046,0.0046,0.0046,0,0,0.0147,0.0134,0.013,0.0112,0.0107,0.0091,0.0106,0.0097,0.0089,0.0099,0.0086,0.009,0.0087,0.0071,0.0063,0.0062,0.0058,0.0036,0.0035,0.0044,0.0072,0.0074,0.0077,0.0046,0.0046,0.0046,0,0,0.0133,0.0129,0.0113,0.01,0.0084,0.0082,0.0078,0.007,0.0075,0.0059,0.0075,0.0078,0.0049,0.0058,0.0056,0.0046,0.0057,0.0033,0.003,0.0056,0.0059,0.0061,0.0103,0.0109,0.0028,0.0028,0.0028,0,0.0135,0.0114,0.0107,0.0083,0.0073,0.0075,0.0059,0.0056,0.0048,0.0056,0.0049,0.0054,0.0045,0.0054,0.005,0.0042,0.0066,0.0031,0.0055,0.0058,0.0061,0.0103,0.0111,0.0027,0.0027,0.0027,0.0027,0,0.0104,0.009,0.0077,0.0049,0.0038,0.0024,0.0014,0.0011,0.0012,0.0016,0.0024,0.0028,0.0038,0.0028,0.003,0.0047,0.0061,0.0055,0.0058,0.0063,0.0107,0.0115,0.0026,0.0026,0.0026,0.0027,0,0,0.0088,0.0065,0.0056,0.0054,0.0023,0.0015,-0.0003,-0.0005,0.0007,-0.0006,0.0011,0.0005,0.0027,0.003,0.004,0.0054,0.0092,0.0059,0.006,0.0101,0.0165,0.0127,0.0132,0.0087,0.0088,0.0089,0.019,0,0.0067,0.0032,0.0022,-0.0,-0.0013,-0.0014,-0.0021,-0.0021,-0.0018,-0.0005,0.001,0.0026,0.0022,0.0037,0.005,0.0088,0.0111,0.0066,0.0153,0.0157,0.0122,0.0138,0.0093,0.0196,0.0198,0.0199,0.02,0,0.002,0.0015,-0.0014,-0.0002,-0.0005,-0.0018,-0.0009,-0.0012,0.0004,0.0011,0.0028,0.0046,0.0078,0.0065,0.0136,0.0109,0.0137,0.0159,0.0163,0.0139,0.0132,0.0188,0.0215,0.0214,0.0213,0.0212,0.0211,0,-0.0007,-0.0016,-0.003,-0.0037,-0.0031,-0.0029,-0.0017,-0.0007,0.0003,0.0029,0.0045,0.0083,0.0114,0.0147,0.0187,0.0169,0.0262,0.0245,0.0243,0.0241,0.0253,0.0249,0.0293,0.0293,0.0293,0.0293,0.0292,0,-0.0051,-0.0058,-0.0036,-0.0051,-0.0042,-0.0027,-0.002,-0.0005,0.0023,0.0037,0.0065,0.009,0.0134,0.0184,0.0209,0.0256,0.0287,0.0254,0.0263,0.0245,0.0239,0.026,0.0254,0.0296,0.0295,0.0295,0.0294,0,-0.011,-0.01,-0.0107,-0.0079,-0.007,-0.0068,-0.0037,-0.0026,0.0018,0.0036,0.0048,0.0113,0.018,0.0226,0.0296,0.0293,0.0334,0.0341,0.0341,0.0347,0.0295,0.0288,0.0356,0.0356,0.0355,0.0355,0.0355,0,-0.0138,-0.0152,-0.0145,-0.0145,-0.0138,-0.012,-0.0113,-0.0059,-0.0045,0.0044,0.0052,0.0138,0.0171,0.0268,0.0304,0.0365,0.0351,0.038,0.0312,0.0298,0.0301,0.0294,0.0288,0.0354,0.0354,0.0354,0.0353,0,-0.0168,-0.0181,-0.0191,-0.0205,-0.02,-0.0192,-0.0164,-0.0149,-0.008,-0.0034,0.0054,0.0114,0.0192,0.0254,0.0308,0.0339,0.0362,0.0375,0.0375,0.0311,0.0296,0.0297,0.0292,0.0352,0.0352,0.0352,0.0352,0,-0.018,-0.0203,-0.0222,-0.0237,-0.0246,-0.0244,-0.0229,-0.0177,-0.0138,-0.0026,0.0001,0.0108,0.0181,0.0243,0.0288,0.032,0.0308,0.0294,0.0298,0.0301,0.0232,0.0201,0.0245,0,0,0,0,0,-0.0162,-0.019,-0.0229,-0.0244,-0.0276,-0.027,-0.0248,-0.0224,-0.015,-0.01,-0.0042,0.0029,0.0126,0.0188,0.021,0.0248,0.0294,0.0272,0.0274,0.0343,0.0345,0.0266,0,0,0,0,0,0,-0.0142,-0.0178,-0.0226,-0.0255,-0.0271,-0.0285,-0.0274,-0.0233,-0.0192,-0.0111,-0.0053,0.0013,0.011,0.0116,0.0209,0.0223,0.0219,0.0334,0.0334,0.0342,0.0343,0.0345,0.0265,0,0,0,0,0]}]]